Time,TemperatureF,DewpointF,PressureIn,WindDirection,WindDirectionDegrees,WindSpeedMPH,WindSpeedGustMPH,Humidity,HourlyPrecipIn,Conditions,Clouds,dailyrainin,SoftwareType,DateUTC
2013-03-13 00:03:00,47.0,46.0,29.82,SW,223,3.0,3.0,98,0.00,,,0.78,,2013-03-13 04:03:00,
2013-03-13 00:13:00,47.0,46.0,29.82,SW,223,3.0,3.0,98,0.00,,,0.78,,2013-03-13 04:13:00,
2013-03-13 00:22:00,47.0,46.0,29.81,WSW,242,0.0,3.0,98,0.00,,,0.78,,2013-03-13 04:22:00,
2013-03-13 00:32:00,47.0,46.0,29.81,WSW,242,0.0,3.0,98,0.00,,,0.78,,2013-03-13 04:32:00,
2013-03-13 00:43:00,47.0,46.0,29.81,WSW,242,0.0,3.0,98,0.00,,,0.78,,2013-03-13 04:43:00,
2013-03-13 00:52:00,47.0,46.0,29.81,WSW,256,0.0,0.0,98,0.00,,,0.79,,2013-03-13 04:52:00,
2013-03-13 01:02:00,46.0,45.0,29.81,NW,326,4.0,0.0,98,0.00,,,0.79,,2013-03-13 05:02:00,
2013-03-13 01:13:00,46.0,45.0,29.81,NW,326,4.0,0.0,98,0.00,,,0.79,,2013-03-13 05:13:00,
2013-03-13 01:22:00,46.0,45.0,29.81,NW,326,4.0,0.0,98,0.00,,,0.79,,2013-03-13 05:22:00,
2013-03-13 01:32:00,44.0,43.0,29.81,WNW,301,7.0,7.0,97,0.00,,,0.79,,2013-03-13 05:32:00,
2013-03-13 01:42:00,44.0,43.0,29.81,WNW,301,7.0,7.0,97,0.00,,,0.79,,2013-03-13 05:42:00,
2013-03-13 01:53:00,44.0,43.0,29.81,WNW,301,7.0,7.0,97,0.00,,,0.79,,2013-03-13 05:53:00,
2013-03-13 02:02:00,43.0,40.0,29.82,NW,326,3.0,4.0,90,0.00,,,0.79,,2013-03-13 06:02:00,
2013-03-13 02:12:00,43.0,40.0,29.82,NW,326,3.0,4.0,90,0.00,,,0.79,,2013-03-13 06:12:00,
2013-03-13 02:23:00,43.0,39.0,29.83,NW,310,4.0,4.0,87,0.00,,,0.79,,2013-03-13 06:23:00,
2013-03-13 02:32:00,43.0,39.0,29.82,NNE,19,4.0,4.0,85,0.00,,,0.79,,2013-03-13 06:32:00,
2013-03-13 02:42:00,43.0,39.0,29.82,NNE,19,4.0,4.0,85,0.00,,,0.79,,2013-03-13 06:42:00,
2013-03-13 02:53:00,43.0,39.0,29.82,NNE,19,4.0,4.0,85,0.00,,,0.79,,2013-03-13 06:53:00,
2013-03-13 03:02:00,43.0,38.0,29.82,NW,323,5.0,5.0,83,0.00,,,0.79,,2013-03-13 07:02:00,
2013-03-13 03:12:00,43.0,38.0,29.82,NW,323,5.0,5.0,83,0.00,,,0.79,,2013-03-13 07:12:00,
2013-03-13 03:23:00,43.0,38.0,29.82,North,357,5.0,5.0,83,0.00,,,0.79,,2013-03-13 07:23:00,
2013-03-13 03:33:00,43.0,38.0,29.83,WNW,301,4.0,7.0,81,0.00,,,0.79,,2013-03-13 07:33:00,
2013-03-13 03:42:00,43.0,38.0,29.83,WNW,301,4.0,7.0,81,0.00,,,0.79,,2013-03-13 07:42:00,
2013-03-13 03:52:00,42.0,37.0,29.83,NW,309,6.0,7.0,82,0.00,,,0.79,,2013-03-13 07:52:00,
2013-03-13 04:03:00,42.0,37.0,29.85,NNW,327,8.0,8.0,81,0.00,,,0.79,,2013-03-13 08:03:00,
2013-03-13 04:12:00,42.0,37.0,29.85,NNW,327,8.0,8.0,81,0.00,,,0.79,,2013-03-13 08:12:00,
2013-03-13 04:22:00,42.0,36.0,29.84,NW,308,4.0,7.0,80,0.00,,,0.79,,2013-03-13 08:22:00,
2013-03-13 04:32:00,42.0,35.0,29.84,WNW,292,5.0,8.0,77,0.00,,,0.79,,2013-03-13 08:32:00,
2013-03-13 04:43:00,42.0,35.0,29.84,WNW,292,5.0,8.0,77,0.00,,,0.79,,2013-03-13 08:43:00,
2013-03-13 04:54:00,41.0,34.0,29.84,WNW,297,4.0,8.0,75,0.00,,,0.79,,2013-03-13 08:54:00,
2013-03-13 05:02:00,41.0,34.0,29.85,NW,312,4.0,8.0,75,0.00,,,0.79,,2013-03-13 09:02:00,
2013-03-13 05:12:00,41.0,34.0,29.85,NW,312,4.0,8.0,75,0.00,,,0.79,,2013-03-13 09:12:00,
2013-03-13 05:22:00,41.0,34.0,29.85,NW,312,4.0,8.0,75,0.00,,,0.79,,2013-03-13 09:22:00,
2013-03-13 05:32:00,40.0,32.0,29.85,WNW,294,3.0,7.0,73,0.00,,,0.79,,2013-03-13 09:32:00,
2013-03-13 05:42:00,40.0,32.0,29.85,WNW,294,3.0,7.0,73,0.00,,,0.79,,2013-03-13 09:42:00,
2013-03-13 05:52:00,40.0,32.0,29.85,WNW,294,3.0,7.0,73,0.00,,,0.79,,2013-03-13 09:52:00,
2013-03-13 06:02:00,39.0,30.0,29.85,WNW,295,6.0,7.0,71,0.00,,,0.79,,2013-03-13 10:02:00,
2013-03-13 06:12:00,39.0,30.0,29.85,WNW,295,6.0,7.0,71,0.00,,,0.79,,2013-03-13 10:12:00,
2013-03-13 06:22:00,39.0,31.0,29.85,NW,308,5.0,7.0,72,0.00,,,0.79,,2013-03-13 10:22:00,
2013-03-13 06:32:00,39.0,30.0,29.85,WNW,301,2.0,6.0,71,0.00,,,0.79,,2013-03-13 10:32:00,
2013-03-13 06:42:00,39.0,30.0,29.85,WNW,301,2.0,6.0,71,0.00,,,0.79,,2013-03-13 10:42:00,
2013-03-13 06:52:00,38.0,30.0,29.85,NW,315,7.0,7.0,72,0.00,,,0.79,,2013-03-13 10:52:00,
2013-03-13 07:02:00,38.0,30.0,29.85,NW,312,5.0,6.0,73,0.00,,,0.79,,2013-03-13 11:02:00,
2013-03-13 07:12:00,38.0,30.0,29.85,NW,312,5.0,6.0,73,0.00,,,0.79,,2013-03-13 11:12:00,
2013-03-13 07:22:00,37.0,29.0,29.86,NW,308,0.0,6.0,73,0.00,,,0.79,,2013-03-13 11:22:00,
2013-03-13 07:32:00,37.0,29.0,29.86,WNW,303,3.0,9.0,73,0.00,,,0.79,,2013-03-13 11:32:00,
2013-03-13 07:42:00,37.0,29.0,29.86,WNW,303,3.0,9.0,73,0.00,,,0.79,,2013-03-13 11:42:00,
2013-03-13 07:53:00,37.0,29.0,29.86,WNW,299,0.0,9.0,74,0.00,,,0.79,,2013-03-13 11:53:00,
2013-03-13 08:02:00,37.0,29.0,29.86,WNW,293,0.0,9.0,74,0.00,,,0.79,,2013-03-13 12:02:00,
2013-03-13 08:12:00,37.0,29.0,29.86,WNW,293,0.0,9.0,74,0.00,,,0.79,,2013-03-13 12:12:00,
2013-03-13 08:22:00,38.0,30.0,29.87,NW,307,0.0,9.0,73,0.00,,,0.79,,2013-03-13 12:22:00,
2013-03-13 08:32:00,38.0,30.0,29.87,WNW,289,4.0,0.0,73,0.00,,,0.79,,2013-03-13 12:32:00,
2013-03-13 08:42:00,38.0,30.0,29.87,WNW,289,4.0,0.0,73,0.00,,,0.79,,2013-03-13 12:42:00,
2013-03-13 08:52:00,39.0,31.0,29.87,WNW,289,0.0,0.0,73,0.00,,,0.79,,2013-03-13 12:52:00,
2013-03-13 09:02:00,39.0,30.0,29.87,NW,308,11.0,0.0,71,0.00,,,0.79,,2013-03-13 13:02:00,
2013-03-13 09:12:00,39.0,30.0,29.87,NW,308,11.0,0.0,71,0.00,,,0.79,,2013-03-13 13:12:00,
2013-03-13 09:22:00,39.0,30.0,29.87,NW,308,11.0,0.0,71,0.00,,,0.79,,2013-03-13 13:22:00,
2013-03-13 09:33:00,41.0,31.0,29.87,WNW,299,0.0,12.0,68,0.00,,,0.79,,2013-03-13 13:33:00,
2013-03-13 09:43:00,41.0,31.0,29.87,WNW,299,0.0,12.0,68,0.00,,,0.79,,2013-03-13 13:43:00,
2013-03-13 09:53:00,42.0,32.0,29.87,NW,319,9.0,12.0,67,0.00,,,0.79,,2013-03-13 13:53:00,
2013-03-13 10:03:00,42.0,31.0,29.87,WNW,287,5.0,12.0,65,0.00,,,0.79,,2013-03-13 14:03:00,
2013-03-13 10:12:00,42.0,31.0,29.87,WNW,287,5.0,12.0,65,0.00,,,0.79,,2013-03-13 14:12:00,
2013-03-13 10:22:00,42.0,32.0,29.87,North,352,2.0,12.0,67,0.00,,,0.79,,2013-03-13 14:22:00,
2013-03-13 10:33:00,43.0,32.0,29.86,West,279,4.0,10.0,66,0.00,,,0.79,,2013-03-13 14:33:00,
2013-03-13 10:42:00,43.0,32.0,29.86,West,279,4.0,10.0,66,0.00,,,0.79,,2013-03-13 14:42:00,
2013-03-13 10:52:00,44.0,33.0,29.85,West,281,0.0,10.0,64,0.00,,,0.79,,2013-03-13 14:52:00,
2013-03-13 11:03:00,44.0,32.0,29.85,WNW,289,4.0,10.0,62,0.00,,,0.79,,2013-03-13 15:03:00,
2013-03-13 11:12:00,44.0,32.0,29.85,WNW,289,4.0,10.0,62,0.00,,,0.79,,2013-03-13 15:12:00,
2013-03-13 11:22:00,44.0,31.0,29.85,West,274,4.0,10.0,61,0.00,,,0.79,,2013-03-13 15:22:00,
2013-03-13 11:32:00,45.0,32.0,29.85,NW,320,5.0,8.0,60,0.00,,,0.79,,2013-03-13 15:32:00,
2013-03-13 11:42:00,45.0,32.0,29.85,NW,320,5.0,8.0,60,0.00,,,0.79,,2013-03-13 15:42:00,
2013-03-13 11:52:00,45.0,32.0,29.85,NW,326,7.0,8.0,60,0.00,,,0.79,,2013-03-13 15:52:00,
2013-03-13 12:03:00,46.0,32.0,29.85,WNW,295,1.0,8.0,57,0.00,,,0.79,,2013-03-13 16:03:00,
2013-03-13 12:12:00,46.0,32.0,29.85,WNW,295,1.0,8.0,57,0.00,,,0.79,,2013-03-13 16:12:00,
2013-03-13 12:22:00,47.0,31.0,29.85,NW,308,7.0,8.0,54,0.00,,,0.79,,2013-03-13 16:22:00,
2013-03-13 12:32:00,47.0,29.0,29.84,West,281,5.0,9.0,50,0.00,,,0.79,,2013-03-13 16:32:00,
2013-03-13 12:42:00,47.0,29.0,29.84,West,281,5.0,9.0,50,0.00,,,0.79,,2013-03-13 16:42:00,
2013-03-13 12:52:00,47.0,30.0,29.84,West,273,6.0,9.0,51,0.00,,,0.79,,2013-03-13 16:52:00,
2013-03-13 13:02:00,48.0,31.0,29.83,WNW,300,7.0,9.0,51,0.00,,,0.79,,2013-03-13 17:02:00,
2013-03-13 13:12:00,48.0,31.0,29.83,WNW,300,7.0,9.0,51,0.00,,,0.79,,2013-03-13 17:12:00,
2013-03-13 13:22:00,48.0,31.0,29.83,WNW,300,7.0,9.0,51,0.00,,,0.79,,2013-03-13 17:22:00,
2013-03-13 13:33:00,49.0,31.0,29.83,NW,312,7.0,9.0,49,0.00,,,0.79,,2013-03-13 17:33:00,
2013-03-13 13:42:00,49.0,31.0,29.83,NW,312,7.0,9.0,49,0.00,,,0.79,,2013-03-13 17:42:00,
2013-03-13 13:53:00,49.0,31.0,29.82,WSW,247,4.0,9.0,49,0.00,,,0.79,,2013-03-13 17:53:00,
2013-03-13 14:02:00,49.0,29.0,29.81,WNW,285,5.0,9.0,46,0.00,,,0.79,,2013-03-13 18:02:00,
2013-03-13 14:13:00,49.0,29.0,29.81,WNW,285,5.0,9.0,46,0.00,,,0.79,,2013-03-13 18:13:00,
2013-03-13 14:22:00,50.0,31.0,29.81,WNW,290,4.0,9.0,47,0.00,,,0.79,,2013-03-13 18:22:00,
2013-03-13 14:33:00,51.0,30.0,29.80,WNW,299,8.0,12.0,45,0.00,,,0.79,,2013-03-13 18:33:00,
2013-03-13 14:42:00,51.0,30.0,29.80,WNW,299,8.0,12.0,45,0.00,,,0.79,,2013-03-13 18:42:00,
2013-03-13 14:52:00,51.0,29.0,29.80,WNW,296,7.0,12.0,43,0.00,,,0.79,,2013-03-13 18:52:00,
2013-03-13 15:03:00,51.0,29.0,29.80,West,265,11.0,12.0,42,0.00,,,0.79,,2013-03-13 19:03:00,
2013-03-13 15:12:00,51.0,29.0,29.80,West,265,11.0,12.0,42,0.00,,,0.79,,2013-03-13 19:12:00,
2013-03-13 15:22:00,49.0,33.0,29.80,West,259,7.0,12.0,54,0.00,,,0.79,,2013-03-13 19:22:00,
2013-03-13 15:32:00,47.0,35.0,29.80,WSW,245,12.0,12.0,63,0.00,,,0.79,,2013-03-13 19:32:00,
2013-03-13 15:43:00,47.0,35.0,29.80,WSW,245,12.0,12.0,63,0.00,,,0.79,,2013-03-13 19:43:00,
2013-03-13 15:53:00,45.0,35.0,29.80,SW,232,8.0,11.0,68,0.00,,,0.79,,2013-03-13 19:53:00,
2013-03-13 16:02:00,45.0,35.0,29.80,SW,232,8.0,11.0,68,0.00,,,0.79,,2013-03-13 20:02:00,
2013-03-13 16:12:00,45.0,35.0,29.80,SW,232,8.0,11.0,68,0.00,,,0.79,,2013-03-13 20:12:00,
2013-03-13 16:22:00,45.0,34.0,29.80,WSW,255,8.0,11.0,65,0.00,,,0.79,,2013-03-13 20:22:00,
2013-03-13 16:32:00,45.0,33.0,29.80,SW,230,14.0,18.0,62,0.00,,,0.79,,2013-03-13 20:32:00,
2013-03-13 16:42:00,45.0,33.0,29.80,SW,230,14.0,18.0,62,0.00,,,0.79,,2013-03-13 20:42:00,
2013-03-13 16:52:00,45.0,34.0,29.80,WSW,239,11.0,18.0,65,0.00,,,0.79,,2013-03-13 20:52:00,
2013-03-13 17:02:00,45.0,34.0,29.80,SW,222,14.0,18.0,65,0.00,,,0.79,,2013-03-13 21:02:00,
2013-03-13 17:12:00,45.0,34.0,29.80,SW,222,14.0,18.0,65,0.00,,,0.79,,2013-03-13 21:12:00,
2013-03-13 17:22:00,45.0,34.0,29.80,West,268,3.0,18.0,66,0.00,,,0.79,,2013-03-13 21:22:00,
2013-03-13 17:33:00,45.0,34.0,29.80,WSW,239,8.0,11.0,65,0.00,,,0.79,,2013-03-13 21:33:00,
2013-03-13 17:42:00,45.0,34.0,29.80,WSW,239,8.0,11.0,65,0.00,,,0.79,,2013-03-13 21:42:00,
2013-03-13 17:52:00,45.0,34.0,29.80,WSW,251,8.0,11.0,65,0.00,,,0.79,,2013-03-13 21:52:00,
2013-03-13 18:02:00,45.0,34.0,29.80,WSW,251,8.0,11.0,65,0.00,,,0.79,,2013-03-13 22:02:00,
2013-03-13 18:12:00,45.0,34.0,29.80,WSW,251,8.0,11.0,65,0.00,,,0.79,,2013-03-13 22:12:00,
2013-03-13 18:22:00,49.0,27.0,29.80,WNW,295,3.0,11.0,42,0.00,,,0.79,,2013-03-13 22:22:00,
2013-03-13 18:32:00,47.0,25.0,29.81,NNW,333,3.0,12.0,41,0.00,,,0.79,,2013-03-13 22:32:00,
2013-03-13 18:42:00,47.0,25.0,29.81,NNW,333,3.0,12.0,41,0.00,,,0.79,,2013-03-13 22:42:00,
2013-03-13 18:52:00,47.0,26.0,29.81,NW,307,0.0,12.0,43,0.00,,,0.79,,2013-03-13 22:52:00,
2013-03-13 19:02:00,46.0,25.0,29.82,NW,309,0.0,12.0,44,0.00,,,0.79,,2013-03-13 23:02:00,
2013-03-13 19:12:00,46.0,25.0,29.82,NW,309,0.0,12.0,44,0.00,,,0.79,,2013-03-13 23:12:00,
2013-03-13 19:22:00,45.0,25.0,29.82,West,277,0.0,12.0,46,0.00,,,0.79,,2013-03-13 23:22:00,
2013-03-13 19:32:00,44.0,33.0,29.83,SW,229,3.0,3.0,65,0.00,,,0.79,,2013-03-13 23:32:00,
2013-03-13 19:42:00,44.0,33.0,29.83,SW,229,3.0,3.0,65,0.00,,,0.79,,2013-03-13 23:42:00,
2013-03-13 19:52:00,44.0,33.0,29.83,SW,229,3.0,3.0,65,0.00,,,0.79,,2013-03-13 23:52:00,
2013-03-13 20:02:00,41.0,34.0,29.84,SW,229,0.0,3.0,76,0.00,,,0.79,,2013-03-14 00:02:00,
2013-03-13 20:13:00,41.0,34.0,29.84,SW,229,0.0,3.0,76,0.00,,,0.79,,2013-03-14 00:13:00,
2013-03-13 20:22:00,41.0,34.0,29.84,SW,229,0.0,3.0,76,0.00,,,0.79,,2013-03-14 00:22:00,
2013-03-13 20:32:00,41.0,34.0,29.84,SW,229,0.0,3.0,76,0.00,,,0.79,,2013-03-14 00:32:00,
2013-03-13 20:52:00,39.0,33.0,29.85,SW,229,0.0,0.0,80,0.00,,,0.79,,2013-03-14 00:52:00,
2013-03-13 21:03:00,39.0,34.0,29.85,SW,229,0.0,0.0,81,0.00,,,0.79,,2013-03-14 01:03:00,
2013-03-13 21:12:00,39.0,34.0,29.85,SW,229,0.0,0.0,81,0.00,,,0.79,,2013-03-14 01:12:00,
2013-03-13 21:22:00,38.0,33.0,29.85,SW,229,0.0,0.0,82,0.00,,,0.79,,2013-03-14 01:22:00,
2013-03-13 21:32:00,37.0,32.0,29.86,SW,229,0.0,0.0,82,0.00,,,0.79,,2013-03-14 01:32:00,
2013-03-13 21:42:00,37.0,32.0,29.86,SW,229,0.0,0.0,82,0.00,,,0.79,,2013-03-14 01:42:00,
2013-03-13 21:52:00,37.0,33.0,29.85,SW,229,0.0,0.0,86,0.00,,,0.79,,2013-03-14 01:52:00,
2013-03-13 22:02:00,37.0,34.0,29.86,SW,229,0.0,0.0,87,0.00,,,0.79,,2013-03-14 02:02:00,
2013-03-13 22:12:00,37.0,34.0,29.86,SW,229,0.0,0.0,87,0.00,,,0.79,,2013-03-14 02:12:00,
2013-03-13 22:22:00,37.0,34.0,29.86,SW,229,0.0,0.0,87,0.00,,,0.79,,2013-03-14 02:22:00,
2013-03-13 22:32:00,36.0,33.0,29.86,SW,229,0.0,0.0,87,0.00,,,0.79,,2013-03-14 02:32:00,
2013-03-13 22:42:00,36.0,33.0,29.86,SW,229,0.0,0.0,87,0.00,,,0.79,,2013-03-14 02:42:00,
2013-03-13 22:52:00,36.0,33.0,29.86,SW,229,0.0,0.0,87,0.00,,,0.79,,2013-03-14 02:52:00,
2013-03-13 23:02:00,35.0,32.0,29.86,SW,229,0.0,0.0,87,0.00,,,0.79,,2013-03-14 03:02:00,
2013-03-13 23:12:00,35.0,32.0,29.86,SW,229,0.0,0.0,87,0.00,,,0.79,,2013-03-14 03:12:00,
2013-03-13 23:23:00,35.0,32.0,29.86,SW,229,0.0,0.0,87,0.00,,,0.79,,2013-03-14 03:23:00,
2013-03-13 23:32:00,35.0,29.0,29.86,SW,229,0.0,0.0,79,0.00,,,0.79,,2013-03-14 03:32:00,
2013-03-13 23:42:00,35.0,29.0,29.86,SW,229,0.0,0.0,79,0.00,,,0.79,,2013-03-14 03:42:00,
2013-03-13 23:53:00,34.0,29.0,29.86,SW,229,0.0,0.0,81,0.00,,,0.00,,2013-03-14 03:53:00,